Torna al catalogo

KUIPER-00597

AttivoComunicazioniLEO
NORAD 69282·PAYLOAD·🇺🇸 United States

Lanciato May 29, 2026 da Vandenberg Space Force Base

Loading…

Prossimi Passaggi (prossime 24 ore)

TLE

AggiornatoSource: CelesTrak SupGP

Epoca: Sep 14, 2026, 17:52 UTC

1 69282C 26118R   26257.74489583  .00008285  00000+0  10854-2 0  2574
2 69282  51.8985 349.6464 0001903  39.1460 113.9967 14.79887796    10

Traccia KUIPER-00597 in tempo reale con AllMySat

Download on the App Store